ANA85 RJTT-RJGG

Flight info

Callsign ANA85
Flight time 0h 41m
Altitude 24000
Route BEKLA Y18 PIGAP Y88 SUGAL Y881 SLIDE
Aircraft A20N/M-SDE2E3FGHIRWXY/LB1

Departure

Time 2026-05-07 09:57
Airport Tokyo Haneda International Airport (RJTT)

Arrival

Time 2026-05-07 10:38
Airport Chubu Centrair International Airport (RJGG)
Time Latitude Longitude Altitude Speed Heading
2026-05-07 09:23 35.55099 139.78985 22 ft 0 kts 238°
2026-05-07 09:45 35.55105 139.78996 22 ft 2 kts 237°
2026-05-07 09:45 35.55113 139.79014 26 ft 2 kts 242°
2026-05-07 09:45 35.55120 139.79032 26 ft 2 kts 246°
2026-05-07 09:45 35.55126 139.79051 25 ft 2 kts 255°
2026-05-07 09:46 35.55129 139.79071 22 ft 2 kts 279°
2026-05-07 09:46 35.55122 139.79089 22 ft 2 kts 322°
2026-05-07 09:46 35.55116 139.79095 26 ft 0 kts 328°
2026-05-07 09:50 35.55128 139.79086 24 ft 6 kts 328°
2026-05-07 09:50 35.55186 139.79049 25 ft 12 kts 332°
2026-05-07 09:51 35.55269 139.78987 24 ft 16 kts 327°
2026-05-07 09:51 35.55378 139.78939 23 ft 18 kts 11°
2026-05-07 09:51 35.55459 139.79031 25 ft 13 kts 11°
2026-05-07 09:51 35.55522 139.79028 25 ft 14 kts 336°
2026-05-07 09:52 35.55655 139.78939 23 ft 18 kts 330°
2026-05-07 09:52 35.55735 139.78879 23 ft 23 kts 328°
2026-05-07 09:52 35.55888 139.78770 24 ft 27 kts 330°
2026-05-07 09:52 35.56047 139.78656 24 ft 23 kts 329°
2026-05-07 09:53 35.56194 139.78551 22 ft 25 kts 330°
2026-05-07 09:53 35.56311 139.78466 25 ft 16 kts 327°
2026-05-07 09:53 35.56321 139.78343 24 ft 17 kts 239°
2026-05-07 09:53 35.56259 139.78213 22 ft 20 kts 237°
2026-05-07 09:54 35.56182 139.78059 22 ft 22 kts 237°
2026-05-07 09:54 35.56103 139.77889 23 ft 23 kts 240°
2026-05-07 09:54 35.56020 139.77715 26 ft 24 kts 240°
2026-05-07 09:54 35.55934 139.77535 22 ft 25 kts 239°
2026-05-07 09:55 35.55864 139.77379 26 ft 13 kts 243°
2026-05-07 09:55 35.55798 139.77301 25 ft 14 kts 216°
2026-05-07 09:55 35.55714 139.77231 22 ft 15 kts 214°
2026-05-07 09:55 35.55665 139.77192 23 ft 1 kts 208°
2026-05-07 09:56 35.55650 139.77184 22 ft 4 kts 198°
2026-05-07 09:56 35.55614 139.77185 23 ft 7 kts 166°
2026-05-07 09:56 35.55551 139.77226 22 ft 18 kts 151°
2026-05-07 09:56 35.55220 139.77458 22 ft 96 kts 150°
2026-05-07 09:57 35.54438 139.78008 101 ft 154 kts 152°
2026-05-07 09:57 35.53527 139.78660 971 ft 151 kts 153°
2026-05-07 09:57 35.52600 139.79291 1882 ft 154 kts 157°
2026-05-07 09:57 35.51603 139.79976 2433 ft 175 kts 155°
2026-05-07 09:58 35.50505 139.80790 2966 ft 195 kts 154°
2026-05-07 09:58 35.49213 139.81461 3411 ft 210 kts 174°
2026-05-07 09:58 35.47709 139.81376 3817 ft 228 kts 200°
2026-05-07 09:58 35.46308 139.80351 4335 ft 246 kts 227°
2026-05-07 09:59 35.45422 139.78499 5011 ft 260 kts 251°
2026-05-07 09:59 35.44997 139.76348 6036 ft 262 kts 266°
2026-05-07 09:59 35.45327 139.74162 6982 ft 267 kts 292°
2026-05-07 09:59 35.46460 139.72326 7894 ft 278 kts 316°
2026-05-07 10:00 35.48201 139.71230 8802 ft 290 kts 342°
2026-05-07 10:00 35.50222 139.70902 9749 ft 295 kts 348°
2026-05-07 10:00 35.52255 139.70563 10413 ft 306 kts 346°
2026-05-07 10:00 35.54409 139.70025 10666 ft 327 kts 335°
2026-05-07 10:01 35.56404 139.68613 10985 ft 335 kts 314°
2026-05-07 10:01 35.57888 139.66429 11688 ft 333 kts 296°
2026-05-07 10:01 35.59005 139.63919 12444 ft 337 kts 294°
2026-05-07 10:01 35.60061 139.61341 13289 ft 339 kts 292°
2026-05-07 10:02 35.61109 139.58743 14108 ft 340 kts 292°
2026-05-07 10:02 35.62152 139.56127 14847 ft 342 kts 292°
2026-05-07 10:02 35.63230 139.53489 15419 ft 350 kts 294°
2026-05-07 10:02 35.64363 139.50802 15994 ft 357 kts 295°
2026-05-07 10:03 35.65516 139.48079 16636 ft 361 kts 296°
2026-05-07 10:03 35.66877 139.45462 17323 ft 366 kts 302°
2026-05-07 10:03 35.68358 139.42904 17968 ft 369 kts 302°
2026-05-07 10:03 35.69852 139.40315 18534 ft 373 kts 302°
2026-05-07 10:04 35.71359 139.37704 19081 ft 376 kts 302°
2026-05-07 10:04 35.72881 139.35065 19630 ft 379 kts 302°
2026-05-07 10:04 35.74412 139.32407 20175 ft 383 kts 302°
2026-05-07 10:04 35.75958 139.29720 20725 ft 386 kts 302°
2026-05-07 10:05 35.77515 139.27012 21259 ft 389 kts 302°
2026-05-07 10:05 35.79083 139.24284 21828 ft 391 kts 302°
2026-05-07 10:05 35.80661 139.21537 22410 ft 394 kts 302°
2026-05-07 10:05 35.82050 139.18635 22943 ft 393 kts 290°
2026-05-07 10:06 35.82860 139.15499 23441 ft 392 kts 278°
2026-05-07 10:06 35.83093 139.12097 23661 ft 390 kts 265°
2026-05-07 10:06 35.82926 139.08770 23757 ft 389 kts 265°
2026-05-07 10:06 35.82752 139.05442 23850 ft 390 kts 265°
2026-05-07 10:07 35.82582 139.02100 23928 ft 392 kts 265°
2026-05-07 10:07 35.82415 138.98745 23936 ft 390 kts 265°
2026-05-07 10:07 35.82250 138.95413 23942 ft 389 kts 265°
2026-05-07 10:07 35.82084 138.92087 23947 ft 391 kts 265°
2026-05-07 10:08 35.81915 138.88738 23945 ft 391 kts 265°
2026-05-07 10:08 35.81749 138.85404 23945 ft 389 kts 265°
2026-05-07 10:08 35.81584 138.82118 23952 ft 389 kts 265°
2026-05-07 10:08 35.81413 138.78752 23952 ft 389 kts 265°
2026-05-07 10:09 35.81243 138.75433 23949 ft 389 kts 265°
2026-05-07 10:09 35.81073 138.72109 23949 ft 388 kts 265°
2026-05-07 10:09 35.80902 138.68802 23949 ft 386 kts 264°
2026-05-07 10:09 35.80729 138.65496 23954 ft 387 kts 265°
2026-05-07 10:10 35.80556 138.62183 23954 ft 387 kts 264°
2026-05-07 10:10 35.80383 138.58884 23957 ft 385 kts 264°
2026-05-07 10:10 35.80210 138.55597 23956 ft 385 kts 264°
2026-05-07 10:10 35.80035 138.52294 23956 ft 387 kts 264°
2026-05-07 10:11 35.79858 138.48985 23959 ft 387 kts 264°
2026-05-07 10:11 35.79684 138.45730 23959 ft 385 kts 264°
2026-05-07 10:11 35.79505 138.42397 23961 ft 385 kts 264°
2026-05-07 10:11 35.79329 138.39149 23965 ft 386 kts 264°
2026-05-07 10:12 35.79133 138.35804 23962 ft 386 kts 262°
2026-05-07 10:12 35.78702 138.32600 23970 ft 384 kts 256°
2026-05-07 10:12 35.77949 138.29438 23968 ft 385 kts 250°
2026-05-07 10:12 35.76885 138.26374 23961 ft 383 kts 244°
2026-05-07 10:13 35.75732 138.23417 23975 ft 385 kts 245°
2026-05-07 10:13 35.74596 138.20472 23972 ft 385 kts 245°
2026-05-07 10:13 35.73458 138.17516 23988 ft 383 kts 245°
2026-05-07 10:13 35.72309 138.14534 23956 ft 386 kts 245°
2026-05-07 10:14 35.71142 138.11511 23768 ft 384 kts 245°
2026-05-07 10:14 35.70016 138.08598 23546 ft 382 kts 245°
2026-05-07 10:14 35.68874 138.05645 23297 ft 381 kts 245°
2026-05-07 10:14 35.67739 138.02716 23035 ft 379 kts 245°
2026-05-07 10:15 35.66611 137.99800 22772 ft 378 kts 245°
2026-05-07 10:15 35.65530 137.96867 22516 ft 375 kts 246°
2026-05-07 10:15 35.64484 137.93926 22259 ft 375 kts 247°
2026-05-07 10:15 35.63447 137.90996 22002 ft 373 kts 246°
2026-05-07 10:16 35.62409 137.88081 21742 ft 372 kts 246°
2026-05-07 10:16 35.61367 137.85175 21500 ft 371 kts 246°
2026-05-07 10:16 35.60290 137.82299 21254 ft 369 kts 243°
2026-05-07 10:16 35.58973 137.79597 21006 ft 370 kts 237°
2026-05-07 10:17 35.57389 137.77102 20763 ft 371 kts 230°
2026-05-07 10:17 35.55597 137.74827 20518 ft 369 kts 227°
2026-05-07 10:17 35.53791 137.72593 20273 ft 368 kts 227°
2026-05-07 10:17 35.52009 137.70375 19927 ft 364 kts 227°
2026-05-07 10:18 35.50235 137.68164 19303 ft 363 kts 227°
2026-05-07 10:18 35.48501 137.65925 18591 ft 360 kts 230°
2026-05-07 10:18 35.46869 137.63658 18147 ft 346 kts 231°
2026-05-07 10:18 35.45334 137.61491 17964 ft 327 kts 231°
2026-05-07 10:19 35.43883 137.59454 17697 ft 310 kts 231°
2026-05-07 10:19 35.42477 137.57491 17181 ft 304 kts 231°
2026-05-07 10:19 35.41085 137.55558 16570 ft 301 kts 230°
2026-05-07 10:19 35.39703 137.53648 15983 ft 299 kts 230°
2026-05-07 10:20 35.38326 137.51751 15408 ft 296 kts 230°
2026-05-07 10:20 35.36961 137.49873 14844 ft 294 kts 230°
2026-05-07 10:20 35.35607 137.48012 14281 ft 292 kts 230°
2026-05-07 10:20 35.34256 137.46154 13768 ft 289 kts 230°
2026-05-07 10:21 35.32929 137.44331 13450 ft 287 kts 230°
2026-05-07 10:21 35.31618 137.42531 13155 ft 284 kts 230°
2026-05-07 10:21 35.30346 137.40768 13031 ft 269 kts 232°
2026-05-07 10:21 35.29341 137.38912 12837 ft 254 kts 243°
2026-05-07 10:22 35.28669 137.36962 12431 ft 247 kts 252°
2026-05-07 10:22 35.28181 137.34943 11918 ft 246 kts 252°
2026-05-07 10:22 35.27689 137.32944 11433 ft 245 kts 252°
2026-05-07 10:22 35.27192 137.30954 10939 ft 243 kts 252°
2026-05-07 10:23 35.26697 137.28989 10458 ft 241 kts 252°
2026-05-07 10:23 35.26203 137.27034 9986 ft 240 kts 252°
2026-05-07 10:23 35.25712 137.25091 9509 ft 238 kts 252°
2026-05-07 10:23 35.25222 137.23154 8970 ft 238 kts 251°
2026-05-07 10:24 35.24735 137.21231 8512 ft 236 kts 252°
2026-05-07 10:24 35.24249 137.19314 8051 ft 235 kts 252°
2026-05-07 10:24 35.23768 137.17413 7595 ft 234 kts 252°
2026-05-07 10:24 35.23284 137.15509 7133 ft 234 kts 252°
2026-05-07 10:25 35.22802 137.13610 6672 ft 234 kts 252°
2026-05-07 10:25 35.22320 137.11712 6317 ft 232 kts 252°
2026-05-07 10:25 35.21839 137.09829 5873 ft 232 kts 252°
2026-05-07 10:25 35.21365 137.07965 5419 ft 233 kts 252°
2026-05-07 10:26 35.20880 137.06052 4979 ft 233 kts 252°
2026-05-07 10:26 35.20406 137.04190 4547 ft 233 kts 252°
2026-05-07 10:26 35.20204 137.03395 4374 ft 232 kts 252°
2026-05-07 10:26 35.20075 137.02892 4278 ft 230 kts 252°
2026-05-07 10:27 35.20003 137.02605 4248 ft 230 kts 252°
2026-05-07 10:27 35.19518 137.00701 4142 ft 234 kts 252°
2026-05-07 10:27 35.19043 136.98840 4043 ft 233 kts 252°
2026-05-07 10:27 35.18561 136.96953 4018 ft 231 kts 252°
2026-05-07 10:28 35.18082 136.95079 4014 ft 231 kts 252°
2026-05-07 10:28 35.17601 136.93201 4011 ft 231 kts 252°
2026-05-07 10:28 35.17121 136.91324 4005 ft 231 kts 252°
2026-05-07 10:28 35.16642 136.89454 4013 ft 230 kts 252°
2026-05-07 10:29 35.16180 136.87650 4006 ft 215 kts 252°
2026-05-07 10:29 35.15750 136.85971 3997 ft 199 kts 252°
2026-05-07 10:29 35.15346 136.84394 4027 ft 186 kts 252°
2026-05-07 10:30 35.14646 136.81661 3984 ft 151 kts 251°
2026-05-07 10:30 35.14329 136.80428 4010 ft 155 kts 251°
2026-05-07 10:30 35.14009 136.79187 4005 ft 152 kts 251°
2026-05-07 10:30 35.13691 136.77955 4005 ft 152 kts 251°
2026-05-07 10:31 35.13365 136.76727 4000 ft 152 kts 246°
2026-05-07 10:31 35.12774 136.75675 4007 ft 151 kts 223°
2026-05-07 10:31 35.11904 136.74965 4004 ft 152 kts 203°
2026-05-07 10:31 35.10876 136.74691 4049 ft 152 kts 183°
2026-05-07 10:32 35.09816 136.74772 4111 ft 153 kts 173°
2026-05-07 10:32 35.08759 136.74998 4089 ft 155 kts 170°
2026-05-07 10:32 35.07713 136.75255 4005 ft 152 kts 170°
2026-05-07 10:32 35.06673 136.75507 3880 ft 153 kts 170°
2026-05-07 10:33 35.05632 136.75759 3726 ft 152 kts 170°
2026-05-07 10:33 35.04590 136.76011 3551 ft 152 kts 169°
2026-05-07 10:33 35.03560 136.76261 3373 ft 148 kts 169°
2026-05-07 10:33 35.02596 136.76494 3184 ft 135 kts 169°
2026-05-07 10:34 35.01662 136.76719 3004 ft 137 kts 169°
2026-05-07 10:34 35.00766 136.76937 2810 ft 128 kts 169°
2026-05-07 10:34 34.99872 136.77152 2646 ft 134 kts 168°
2026-05-07 10:34 34.98951 136.77373 2476 ft 135 kts 169°
2026-05-07 10:35 34.98028 136.77599 2211 ft 136 kts 169°
2026-05-07 10:35 34.97090 136.77825 1816 ft 139 kts 169°
2026-05-07 10:35 34.96181 136.78049 1606 ft 130 kts 167°
2026-05-07 10:35 34.95278 136.78284 1415 ft 133 kts 168°
2026-05-07 10:36 34.94384 136.78501 1260 ft 130 kts 169°
2026-05-07 10:36 34.93487 136.78714 1119 ft 132 kts 167°
2026-05-07 10:36 34.92589 136.78940 937 ft 132 kts 169°
2026-05-07 10:36 34.91684 136.79119 786 ft 131 kts 169°
2026-05-07 10:37 34.90795 136.79311 649 ft 130 kts 169°
2026-05-07 10:37 34.89911 136.79522 513 ft 128 kts 166°
2026-05-07 10:37 34.89053 136.79763 372 ft 127 kts 168°
2026-05-07 10:37 34.88188 136.79992 223 ft 126 kts 167°
2026-05-07 10:38 34.87328 136.80186 60 ft 125 kts 168°
2026-05-07 10:38 34.86554 136.80370 25 ft 90 kts 167°
2026-05-07 10:38 34.86137 136.80479 24 ft 39 kts 169°
2026-05-07 10:38 34.85972 136.80522 27 ft 33 kts 163°
2026-05-07 10:39 34.85794 136.80630 25 ft 26 kts 143°
2026-05-07 10:39 34.85709 136.80760 25 ft 16 kts 81°
2026-05-07 10:39 34.85793 136.80792 26 ft 15 kts 349°
2026-05-07 10:39 34.85886 136.80779 26 ft 14 kts 339°
2026-05-07 10:40 34.85996 136.80749 27 ft 17 kts
2026-05-07 10:40 34.86044 136.80872 24 ft 17 kts 98°
2026-05-07 10:40 34.85994 136.80936 25 ft 9 kts 110°
2026-05-07 10:40 34.86001 136.81020 27 ft 11 kts 80°
2026-05-07 10:41 34.86017 136.81124 27 ft 13 kts 73°
2026-05-07 10:41 34.86086 136.81169 26 ft 12 kts 352°
2026-05-07 10:41 34.86121 136.81232 24 ft 8 kts 74°
2026-05-07 10:41 34.86131 136.81284 25 ft 2 kts 78°
2026-05-07 10:42 34.86132 136.81292 25 ft 0 kts 79°
2026-05-07 10:44 34.86131 136.81285 25 ft 2 kts 104°
2026-05-07 10:45 34.86134 136.81275 25 ft 1 kts 119°
2026-05-07 10:45 34.86137 136.81269 26 ft 0 kts 111°
2026-05-07 10:45 34.86135 136.81277 24 ft 0 kts 101°
2026-05-07 10:46 34.86135 136.81278 24 ft 0 kts 95°